Location: Chochol
(49.7771°N, 14.9780°E)
Time: 01:44:22
(UTC+00:00)

CARTOSAT-1 - Pass Details

Date: 09 April 2020
Orbit: 616 x 619 km, 97.8° (Epoch: 03 June)

Event Time Altitude Azimuth Distance (km) Brightness Sun altitude
Exits shadow 20:39:34 80° 258° (WSW) 636 3.5 -24.5°
Drops below altitude 10° 20:43:55 10° 344° (NNW) 1,998 7.1 -24.9°
Sets 20:46:07 0° 346° (NNW) 2,909 8.1 -25.1°
